TimeCST,TemperatureF,Dew PointF,Humidity,Sea Level PressureIn,VisibilityMPH,Wind Direction,Wind SpeedMPH,Gust SpeedMPH,PrecipitationIn,Events,Conditions,WindDirDegrees,DateUTC
12:10 AM,35.6,32.0,87,29.99,10.0,South,6.9,-,N/A,,Overcast,180,2012-11-08 06:10:00
12:30 AM,35.6,32.0,87,29.98,10.0,SSE,6.9,-,N/A,,Overcast,160,2012-11-08 06:30:00
1:09 AM,35.6,32.0,87,29.99,7.0,South,5.8,-,N/A,Rain,Light Rain,190,2012-11-08 07:09:00
1:30 AM,35.6,33.8,93,29.99,10.0,South,8.1,-,N/A,Rain,Light Rain,180,2012-11-08 07:30:00
1:49 AM,35.6,33.8,93,29.99,10.0,South,6.9,-,N/A,,Overcast,190,2012-11-08 07:49:00
2:09 AM,35.6,33.8,93,29.98,10.0,SSE,4.6,-,N/A,,Overcast,160,2012-11-08 08:09:00
2:30 AM,35.6,33.8,93,29.97,10.0,SSE,5.8,-,N/A,,Overcast,160,2012-11-08 08:30:00
2:49 AM,35.6,33.8,93,29.96,10.0,SE,8.1,-,N/A,,Overcast,140,2012-11-08 08:49:00
3:09 AM,35.6,33.8,93,29.96,10.0,SSE,5.8,-,N/A,,Overcast,150,2012-11-08 09:09:00
3:30 AM,35.6,33.8,93,29.95,10.0,SSE,6.9,-,N/A,,Overcast,160,2012-11-08 09:30:00
3:49 AM,35.6,33.8,93,29.93,7.0,SSE,8.1,-,N/A,,Overcast,160,2012-11-08 09:49:00
4:09 AM,35.6,33.8,93,29.92,10.0,SSE,9.2,-,N/A,,Mostly Cloudy,160,2012-11-08 10:09:00
4:29 AM,35.6,32.0,87,29.92,10.0,SSE,8.1,-,N/A,,Overcast,160,2012-11-08 10:29:00
4:49 AM,35.6,32.0,87,29.91,10.0,South,9.2,-,N/A,,Mostly Cloudy,170,2012-11-08 10:49:00
5:10 AM,35.6,32.0,87,29.91,10.0,South,8.1,-,N/A,,Scattered Clouds,170,2012-11-08 11:10:00
5:29 AM,35.6,32.0,87,29.90,10.0,South,10.4,-,N/A,,Mostly Cloudy,170,2012-11-08 11:29:00
5:49 AM,35.6,32.0,87,29.90,10.0,South,10.4,-,N/A,,Scattered Clouds,180,2012-11-08 11:49:00
6:10 AM,35.6,32.0,87,29.90,10.0,South,8.1,-,N/A,,Scattered Clouds,180,2012-11-08 12:10:00
6:29 AM,33.8,32.0,93,29.88,10.0,South,8.1,17.3,N/A,,Scattered Clouds,170,2012-11-08 12:29:00
6:49 AM,-9999,-9999,N/A,29.89,10.0,South,5.8,-,N/A,,Clear,170,2012-11-08 12:49:00
7:10 AM,33.8,32.0,93,29.89,10.0,South,8.1,-,N/A,,Clear,180,2012-11-08 13:10:00
7:29 AM,33.8,32.0,93,29.89,10.0,South,8.1,-,N/A,,Scattered Clouds,170,2012-11-08 13:29:00
7:50 AM,35.6,32.0,87,29.90,10.0,South,9.2,-,N/A,,Clear,170,2012-11-08 13:50:00
8:09 AM,35.6,32.0,87,29.91,10.0,South,8.1,-,N/A,,Clear,190,2012-11-08 14:09:00
8:29 AM,35.6,32.0,87,29.92,10.0,SSW,6.9,-,N/A,,Clear,200,2012-11-08 14:29:00
8:50 AM,35.6,32.0,87,29.92,10.0,SSW,11.5,-,N/A,,Clear,200,2012-11-08 14:50:00
9:09 AM,35.6,32.0,87,29.90,10.0,SSW,8.1,18.4,N/A,,Clear,200,2012-11-08 15:09:00
9:29 AM,35.6,32.0,87,29.88,10.0,South,11.5,16.1,N/A,,Clear,190,2012-11-08 15:29:00
9:49 AM,37.4,32.0,81,29.87,10.0,South,9.2,-,N/A,,Scattered Clouds,190,2012-11-08 15:49:00
10:09 AM,37.4,32.0,81,29.86,10.0,SSW,9.2,19.6,N/A,,Scattered Clouds,210,2012-11-08 16:09:00
10:30 AM,41.0,32.0,70,29.89,10.0,SW,11.5,16.1,N/A,,Clear,220,2012-11-08 16:30:00
10:49 AM,41.0,32.0,70,29.89,10.0,WSW,15.0,-,N/A,,Scattered Clouds,240,2012-11-08 16:49:00
11:10 AM,41.0,32.0,70,29.88,10.0,SW,10.4,17.3,N/A,,Scattered Clouds,220,2012-11-08 17:10:00
11:30 AM,42.8,32.0,66,29.88,10.0,WSW,10.4,-,N/A,,Clear,250,2012-11-08 17:30:00
11:49 AM,42.8,32.0,66,29.87,10.0,SW,11.5,-,N/A,,Clear,220,2012-11-08 17:49:00
12:10 PM,44.6,32.0,61,29.86,10.0,SW,6.9,-,N/A,,Scattered Clouds,230,2012-11-08 18:10:00
12:30 PM,42.8,32.0,66,29.87,10.0,WSW,9.2,-,N/A,,Scattered Clouds,250,2012-11-08 18:30:00
12:49 PM,44.6,32.0,61,29.87,10.0,West,10.4,-,N/A,,Clear,260,2012-11-08 18:49:00
1:09 PM,42.8,32.0,66,29.88,10.0,West,9.2,-,N/A,,Mostly Cloudy,270,2012-11-08 19:09:00
1:30 PM,42.8,32.0,66,29.88,10.0,West,8.1,-,N/A,,Overcast,260,2012-11-08 19:30:00
1:49 PM,42.8,32.0,66,29.89,10.0,WNW,5.8,-,N/A,,Overcast,290,2012-11-08 19:49:00
2:09 PM,42.8,32.0,66,29.89,10.0,NW,11.5,-,N/A,,Overcast,310,2012-11-08 20:09:00
2:30 PM,42.8,33.8,70,29.91,10.0,WNW,10.4,-,N/A,,Overcast,300,2012-11-08 20:30:00
2:49 PM,42.8,32.0,66,29.91,10.0,West,5.8,9.2,N/A,,Overcast,280,2012-11-08 20:49:00
3:09 PM,42.8,32.0,66,29.92,10.0,NW,8.1,-,N/A,,Overcast,310,2012-11-08 21:09:00
3:30 PM,41.0,32.0,70,29.93,10.0,NW,8.1,-,N/A,,Overcast,320,2012-11-08 21:30:00
3:49 PM,41.0,32.0,70,29.95,10.0,WNW,8.1,-,N/A,,Overcast,300,2012-11-08 21:49:00
4:10 PM,41.0,33.8,76,29.96,10.0,NW,10.4,-,N/A,,Overcast,310,2012-11-08 22:10:00
4:29 PM,41.0,33.8,76,29.97,10.0,NW,8.1,-,N/A,,Overcast,310,2012-11-08 22:29:00
4:49 PM,37.4,33.8,87,29.98,10.0,NW,9.2,-,N/A,,Overcast,320,2012-11-08 22:49:00
5:10 PM,37.4,32.0,81,29.98,10.0,North,4.6,-,N/A,,Overcast,350,2012-11-08 23:10:00
5:29 PM,37.4,32.0,81,29.99,10.0,NNW,3.5,-,N/A,,Overcast,330,2012-11-08 23:29:00
5:50 PM,37.4,32.0,81,30.00,10.0,NW,3.5,-,N/A,,Overcast,320,2012-11-08 23:50:00
6:09 PM,37.4,32.0,81,30.00,10.0,NW,5.8,-,N/A,,Overcast,320,2012-11-09 00:09:00
6:29 PM,37.4,32.0,81,30.01,10.0,NW,5.8,-,N/A,,Overcast,320,2012-11-09 00:29:00
6:50 PM,37.4,33.8,87,30.01,10.0,NW,6.9,-,N/A,,Overcast,320,2012-11-09 00:50:00
7:09 PM,37.4,33.8,87,30.01,10.0,NNW,4.6,-,N/A,,Overcast,330,2012-11-09 01:09:00
7:29 PM,37.4,33.8,87,30.02,10.0,NNW,6.9,-,N/A,,Overcast,340,2012-11-09 01:29:00
7:50 PM,37.4,35.6,93,30.02,7.0,NNW,4.6,-,N/A,,Overcast,340,2012-11-09 01:50:00
8:09 PM,37.4,35.6,93,30.03,7.0,NW,3.5,-,N/A,,Overcast,320,2012-11-09 02:09:00
8:29 PM,37.4,35.6,93,30.03,5.0,North,5.8,-,N/A,,Overcast,360,2012-11-09 02:29:00
8:49 PM,37.4,33.8,87,30.04,10.0,NNE,9.2,-,N/A,,Overcast,20,2012-11-09 02:49:00
9:09 PM,37.4,33.8,87,30.05,10.0,North,5.8,-,N/A,,Overcast,10,2012-11-09 03:09:00
9:30 PM,37.4,33.8,87,30.05,10.0,North,3.5,-,N/A,,Overcast,10,2012-11-09 03:30:00
9:49 PM,37.4,33.8,87,30.05,10.0,NNE,4.6,-,N/A,,Overcast,20,2012-11-09 03:49:00
10:09 PM,37.4,33.8,87,30.05,10.0,NNW,9.2,-,N/A,,Overcast,340,2012-11-09 04:09:00
10:29 PM,37.4,32.0,81,30.05,10.0,NE,9.2,-,N/A,,Overcast,40,2012-11-09 04:29:00
10:49 PM,35.6,32.0,87,30.06,10.0,NNE,9.2,-,N/A,,Overcast,20,2012-11-09 04:49:00
11:10 PM,35.6,32.0,87,30.07,10.0,NNE,9.2,-,N/A,,Overcast,20,2012-11-09 05:10:00
11:29 PM,35.6,32.0,87,30.08,10.0,NNE,6.9,-,N/A,,Overcast,20,2012-11-09 05:29:00
11:49 PM,35.6,32.0,87,30.09,10.0,NNE,8.1,-,N/A,,Overcast,30,2012-11-09 05:49:00